00:37
Airports
History
Links
Donate
Help keep this website running!
PayPal
Bitcoin
Information on this page is community maintained and may be outdated or inaccurate and is intended for reference only or PC simulator navigating.
Always use approved charts for navigating.
SSOK
14 Bis
14 Bis (SSOK)
Londrina, Paraná, Brazil
4
Lat/Lng:23° 12' 51" S / 51° 11' 9" W
-23.214167 / -51.185833
Elevation:1932'ft 589mMSL
ID / ICAO:SSOK
Runways:1
Longest:(10-28) 933.3m 3,062ft Grass
Distance To
Airport ID:
Nearby WeatherUpdated 07-27-17 00:00 GMT
Nearby weather at SBLO, Londrina located 9.0 nautical miles from SSOK
Altimeter: 30.27
Visibility: 6.2 statute miles
Wind: 3 knots (130°)
Temp: 20°c 68°f
Humidity: 56.1%

METAR: SBLO 270000Z 13003KT CAVOK 20/11 Q1025

(Powered by phpweather)
Runway 10 / 28
Dimensions:933.3 x 18m 3062' x 59'ft
Surface:Grass
Runway 10 [A]Runway 28 [B]
Heading:089°TH 269°TH
Lat:
Lng:
23° 12' 52.79"S
51° 11' 22.08"W
23° 12' 52.39"S
51° 10' 48.11"W
User Notes and Comments
Google Map
Nearby Airports
(C) Londrina 9.0 NM
SBLO (WX) SSE 156°
(C) Sertanopolis 15.2 NM
SSSZ NE 46°
4 Fazenda Congonhas 20.1 NM
SSXA NE 52°
4 Fazenda Santa Maria 21.0 NM
SSWM SSW 200°
(C) Arapongas 21.6 NM
SSOG WSW 243°
4 Fazenda Sao Francisco 22.9 NM
SDLV NNW 332°
4 Aero Agricola Gaivota 28.2 NM
SJTL NW 305°
VFR Chart
Flight Planning at SkyVector.com